ASTRA 1G
1 25071U 97076A   02364.00000000  .00000128  00000-0  10000-3 0  3864
2 25071   0.0122 319.8851 0002995  65.1991  92.3633  1.00273184 18633
INMARSAT 3-F5
1 25153U 98006B   03006.84955793  .00000142  00000-0  10000-3 0  8280
2 25153   0.4478 358.0182 0003675 272.1214 166.6323  1.00271699 18076
HOT BIRD 4
1 25237U 98013A   02364.09542247  .00000095  00000-0  10000-3 0  3237
2 25237   0.0611 171.7992 0008910  46.8775 287.0610  1.00272623 18039
NOAA 15
1 25338U 98030A   03007.86797515  .00000150  00000-0  83506-4 0  9610
2 25338  98.5515  31.1474 0011457  78.7213 281.5252 14.24223500241861
RESURS O1-N4
1 25394U 98043A   03007.89495974  .00000126  00000-0  74218-4 0  4183
2 25394  98.6367  86.5794 0000975 195.7700 164.3447 14.23860179233607
TMSAT
1 25396U 98043C   03006.94074496 -.00000043 +00000-0 +00000-0 0 08404
2 25396 098.6324 084.8651 0001689 244.8763 115.2241 14.23496366233467
TECHSAT 1B
1 25397U 98043D   03006.94604558 +.00000076 +00000-0 +52849-4 0 01290
2 25397 098.6287 083.8087 0000412 293.5565 066.5569 14.22948649233435
ASTRA 2A
1 25462U 98050A   02364.00000000  .00000158  00000-0  00000+0 0  5276
2 25462   0.0385 308.7109 0004824 280.8620 256.9180  1.00272094 15933
EUTELSAT W2
1 25491U 98056A   03007.85661516  .00000108  00000-0  00000+0 0  5575
2 25491   0.0424 109.4965 0003536 184.7241 137.1129  1.00271790 15637
HOT BIRD 5
1 25495U 98057A   03006.93467760  .00000157  00000-0  00000+0 0  4891
2 25495   0.0548 134.3929 0004140 158.4163 182.8275  1.00273279 15596
SEDSAT 1
1 25509U 98061B   03008.45720274  .00001202  00000-0  22932-3 0  7520
2 25509  31.4344  25.3271 0357831 303.8195  52.8852 14.27349100219438
PAN SAT
1 25520U 98064B   03007.76033841  .00002561  00000-0  12847-3 0  6269
2 25520  28.4618 142.2829 0005703 259.3032 100.6916 15.13644907231247
ISS (ZARYA)
1 25544U 98067A   03008.51250881  .00028670  00000-0  37041-3 0  5583
2 25544  51.6342 102.3238 0005097  11.8220 100.8319 15.58703067236136
ORSTED
1 25635U 99008B   03008.11353985  .00000358  00000-0  97876-4 0  8012
2 25635  96.4469   4.2825 0146799 100.3876 261.3892 14.44757333203954
SUNSAT
1 25636U 99008C   03006.93145616 +.00000180 +00000-0 +54433-4 0 07183
2 25636 096.4494 002.1289 0150524 110.1588 251.5871 14.42911654203666
UOSAT 12
1 25693U 99021A   03008.50117395  .00000225  00000-0  52110-4 0  5941
2 25693  64.5586 136.4769 0016659 316.9932  42.9867 14.76334315200192
FENGYUN 1C
1 25730U 99025A   03007.90792835 -.00000024  00000-0  98878-5 0  7377
2 25730  98.6368  33.8692 0015243 119.8483 240.4208 14.11728471188754
ASTRA 1H
1 25785U 99033A   02364.00000000  .00000128  00000-0  10000-3 0  3670
2 25785   0.0122 319.8851 0002995  65.1991  92.3410  1.00273184 12991
TERRA
1 25994U 99068A   03008.59156601 -.00022292  00000-0 -49604-2 0  5805
2 25994  98.2009  85.4315 0001563 103.5838 256.4418 14.57059954162703
JAWSAT
1 26061U 00004A   03007.89557861  .00000514  00000-0  18908-3 0  7355
2 26061 100.2120  57.2186 0035398  38.0538 322.3133 14.37770881154549
OPAL
1 26063U 00004C   03007.66482610  .00000111  00000-0  58510-4 0  6920
2 26063 100.2183  54.6291 0037419  44.7314 315.6869 14.35461498154371
ASUSAT
1 26065U 00004E   03007.90128364  .00000116  00000-0  60354-4 0  7039
2 26065 100.2169  55.0486 0037722  45.8341 314.5929 14.35487373154406
GOES 11
1 26352U 00022A   03008.38228383 -.00000035  00000-0  10000-3 0  9667
2 26352   0.0488 122.8484 0004443 149.9666 220.1795  1.00260676  9828
EUTELSAT W4
1 26369U 00028A   02365.18880209  .00000161  00000-0  00000+0 0  3348
2 26369   0.0264   6.8932 0003444 271.2514 285.3827  1.00274671  9557
FENGYUN 2B
1 26382U 00032A   03006.71877624 -.00000328  00000-0  00000+0 0  7639
2 26382   0.6753 286.7363 0000463 202.8587 339.6094  1.00269844  9281
EUTELSAT W1
1 26487U 00052A   03008.23533257  .00000073  00000-0  10000-3 0  3386
2 26487   0.0393 104.8972 0003894 179.7033 277.4166  1.00273235  8609
ASTRA 2B
1 26494U 00054A   02364.00000000  .00000158  00000-0  00000+0 0  2502
2 26494   0.0178 354.5658 0005000 302.8402 189.0339  1.00276704  8416
NOAA 16
1 26536U 00055A   03007.55817561  .00000365  00000-0  22393-3 0  1550
2 26536  98.8968 316.1649 0011428  65.8317 294.4050 14.11877471118227
SAUDISAT 1A
1 26545U 00057A   03006.60670719 +.00001322 +00000-0 +19426-3 0 03952
2 26545 064.5565 163.9533 0054728 245.5326 114.0018 14.78838702122871
UNISAT
1 26547U 00057C   03006.61417738  .00002040  00000-0  28255-3 0  4134
2 26547  64.5551 166.3233 0061892 247.9052 111.5481 14.79513407122839
TIUNGSAT 1
1 26548U 00057D   03006.89769777  .00001863  00000-0  25332-3 0  3985
2 26548  64.5560 156.4192 0048162 244.1564 115.4585 14.81091608123045
SAUDISAT 1B
1 26549U 00057E   03008.50680418  .00001115  00000-0  17029-3 0  6617
2 26549  64.5518 162.0185 0059078 245.4403 114.0537 14.77785752123078
AMSAT OSCAR 40
1 26609U 00072B   03007.26362170 -.00000106  00000-0  10000-3 0  3029
2 26609   7.9113  71.9734 7933625 130.5063 330.0224  1.25596642 10050
GOES 12
1 26871U 01031A   03007.34929455 -.00000083  00000-0  10000-3 0  7602
2 26871   0.4464  98.2598 0001074  54.5469 334.1481  1.00261309  5416
STARSHINE 3
1 26929U 01043A   03008.20317338  .00509358  12449-3  81752-3 0  6518
2 26929  67.0254 102.4481 0007841 328.7154  31.3549 16.03297678 72243
PCSAT
1 26931U 01043C   03007.88425358  .00000162  00000-0  96413-4 0  3712
2 26931  67.0491   2.9262 0005394 255.4740 104.5763 14.29088139 66394
SAPPHIRE
1 26932U 01043D   03008.21748617  .00000050  00000-0  51954-4 0  3668
2 26932  67.0560   1.7842 0006562 238.4254 121.6205 14.29274700 66462
ENVISAT
1 27386U 02009A   03008.46723352  .00000227  00000-0  10049-3 0  8256
2 27386  98.5497  77.6097 0000885  91.3343 268.7946 14.32251851 44866
IDEFIX/ARIANE 42P
1 27422U 02021B   03007.56045970  .00000213  00000-0  10369-3 0  2034
2 27422  98.7005  86.9432 0011703 272.4567  87.5274 14.27943669 35467
NOAA 17
1 27453U 02032A   03007.87780073  .00000244  00000-0  12716-3 0  2609
2 27453  98.7633  79.2950 0012463 115.4350 244.8116 14.23265284 28032
HOT BIRD 6
1 27499U 02038A   02364.09542247  .00000095  00000-0  10000-3 0   643
2 27499   0.0040   8.7196 0011180 225.2390 271.8102  1.00272778  1323
RUBIN 2
1 27605U 02058A   03008.45982606  .00000448  00000-0  93272-4 0   248
2 27605  64.5561 322.0701 0031469 128.9008 231.4907 14.71357638  2761
